SCP
0 0 0 0 0 0 0 0 0 0 0 0 0 0 0 0 0 0 0 0 0 0 0 0 -0 -0 -0 -0 -0 0 0 0 0 0 0 0 0 0 0 0 0 0 0 0
0 0 0 0 0 0 0 0 0 0 0 0 0 -0 -0 -0 -0 -0 0 0 0 0 -0 -0 -0 -0 -0 -0 -0 -0 0 -0 -0 -0 -0 -0 -0 -0 0 0 0 0 0 0
0 0 0 0 0 0 0 0 0 0 0 0 0 -0 -0 0 -0 0 0 0 0 0 0 0 0 -0 0 -0 -0 -0 -0 -0 -0 -0 -0 -0 -0 -0 -0 0 0 0 0 0
0 0 0 0 0 0 0 0 0 0 0 0 0 0 0 0 0 0 0 0 0 0 0 0 0 0 0 0 0 0 -0 -0 -0 -0 -0 -0 -0 -0 -0 -0 0 0 0 0
0 0 0 0 0 0 0 0 0 0 0 0 0 0 0 0 0 0 0 0 0 0 0 0 0 0 0 0 0 0 0 0 0 -0 -0 -0 -0 -0 -0 -0 -0 0 0 0
0 0 0 0 0 0 0 0 0 0 0 0 0 0 0 0 0 0 0 0 0 0 0 0 0 0 0 0 0 0 0 0 0 0 0 -0 -0 -0 -0 -0 -0 -0 -0 0
0 0 0 0 0 0 0 0 0 0 0 0 0 0 0 0 0 0 0 0 0 0 0 0 0 0 0 0 0 0 0 0 0 0 -0 -0 0 -0 -0 -0 -0 -0 -0 -0
0 0 0 0 0 0 0 0 0 0 0 0 0 0 0 0 0 0 0 0 0 0 0 0 0 0 0 0 0 0 0 0 0 0 0 -0 -0 -0 -0 -0 -0 -0 -0 -0
0 0 0 0 0 0 0 0 0 0 0 0 0 0 0 0 0 0 0 0 0 0 0 0 0 0 0 0 0 0 0 0 0 0 0 0 -0 -0 -0 -0 -0 -0 -0 -0
0 0 0 0 0 0 0 0 0 0 0 0 0 0 0 0 0 0 0 0 0 0 0 0 0 0 0 0 0 0 0 0 0 0 0 0 0 0 0 -0 0 -0 -0 -0
0 0 0 0 0 0 0 0 0 0 0 0 0 0 0 0 0 0 0 0 0 0 0 0 0 0 0 0 0 0 0 0 0 0 0 0 0 0 0 0 0 0 0 -0
0 0 0 0 0 0 0 0 0 0 0 0 0 0 0 0 0 0 0 0 0 0 0 0 0 0 0 0 0 0 0 0 0 0 0 0 0 0 0 0 0 0 0 0
0 0 0 0 0 0 0 0 0 0 0 0 0 0 0 0 0 0 0 0 0 0 0 0 0 0 0 0 0 0 0 0 0 0 0 0 0 0 0 0 0 0 0 0
0 0 0 0 0 0 0 0 0 0 0 0 0 0 0 0 0 0 0 0 0 0 0 0 0 0 0 0 0 0 0 0 0 0 0 0 0 0 0 0 0 0 0 0
0 0 0 0 0 0 0 0 0 0 0 0 0 0 0 0 0 0 0 0 0 0 0 0 0 0 0 0 0 0 0 0 0 0 0 0 0 0 0 0 0 0 0 0
0 0 0 0 0 0 0 0 0 0 0 0 0 0 0 0 0 0 0 0 0 0 0 0 0 0 0 0 0 0 0 0 0 0 0 0 0 0 0 0 0 0 0 0
0 0 0 0 0 0 0 0 0 0 0 0 0 0 0 0 0 0 0 0 0 0 0 0 0 0 0 0 0 0 0 0 0 0 0 0 0 0 0 0 0 0 0 0
0 0 0 0 0 0 0 0 0 0 0 0 0 0 0 0 0 0 0 0 0 0 0 0 0 0 0 0 0 0 0 0 0 0 0 0 0 0 0 0 0 0 0 0
0 0 0 0 0 0 0 0 0 0 0 0 0 0 0 0 0 0 0 0 0 0 0 0 0 0 0 0 0 0 0 0 0 0 0 0 0 0 0 0 0 0 0 0
0 0 0 0 0 0 0 0 0 0 0 0 0 0 0 0 0 0 0 0 0 0 0 0 0 0 0 0 0 0 0 0 0 0 0 0 0 0 0 0 0 0 0 0
0 0 0 0 0 0 0 0 0 0 0 0 0 0 0 0 0 0 0 0 0 0 0 0 0 0 0 0 0 0 0 0 0 0 0 0 0 0 0 0 0 0 0 0
0 0 0 0 0 0 0 0 0 0 0 0 0 0 0 0 0 0 0 0 0 0 0 0 0 0 0 0 0 0 0 0 0 0 0 0 0 0 0 0 0 0 0 0
0 0 0 0 0 0 0 0 0 0 0 0 0 0 0 0 0 0 0 0 0 0 0 0 0 0 0 0 0 0 0 0 0 0 0 0 0 0 0 0 0 0 0 0
0 0 0 0 0 0 0 0 0 0 0 0 0 0 0 0 0 0 0 0 0 0 0 0 0 0 0 0 0 0 0 0 0 0 0 0 0 0 0 0 0 0 0 0
0 0 0 0 0 0 0 0 0 0 0 0 0 0 0 0 0 0 0 0 0 0 0 0 0 0 0 0 0 0 0 0 0 0 0 0 0 0 0 0 0 0 0 0
0 0 0 0 0 0 0 0 0 0 0 0 0 0 0 0 0 0 0 0 0 0 0 0 0 0 0 0 0 0 0 0 0 0 0 0 0 0 0 0 0 0 0 0
Wind_Speed_500mb
11 17 13 13 12 10 7 7 7 12 5 8 6 9 11 13 3 8 14 20 25 30 34 37 40 42 45 50 56 61 65 70 76 81 83 75 65 57 50 48 49 49 49 58
10 10 8 2 5 5 11 2 10 9 4 7 8 14 12 18 9 4 11 17 22 30 35 38 42 44 47 52 56 59 63 67 72 76 76 78 75 64 58 57 52 53 55 51
13 9 2 6 13 6 16 9 8 6 9 15 10 12 16 17 21 18 8 9 18 25 31 36 42 45 46 54 56 57 59 62 67 72 77 79 76 78 73 66 61 58 59 59
13 4 1 4 10 11 8 9 7 7 7 0 9 7 14 19 20 28 15 1 11 19 21 25 33 41 44 50 54 57 59 60 63 68 72 77 82 83 84 78 70 68 65 64
2 6 4 5 6 7 7 6 6 5 8 7 13 3 2 22 18 16 22 7 5 12 15 18 23 31 35 42 48 51 56 59 62 64 66 69 75 78 79 83 83 74 68 68
9 4 7 7 3 7 6 5 8 7 6 1 11 2 9 14 18 14 19 12 6 10 14 16 21 26 32 40 45 49 54 57 60 64 65 66 70 75 81 85 88 90 85 77
7 9 8 3 6 13 12 6 2 3 2 6 12 1 16 9 10 15 22 16 10 12 16 21 23 30 31 39 44 47 51 55 58 61 63 65 67 70 74 79 84 89 92 88
10 5 2 3 7 4 4 1 4 9 4 1 7 11 11 8 26 20 18 15 13 14 17 22 25 30 33 35 40 44 46 49 52 56 59 61 63 66 68 71 74 78 84 87
7 6 7 11 6 5 1 2 2 7 3 5 9 10 7 12 11 19 21 19 21 20 22 24 26 32 36 37 36 40 45 48 50 53 57 59 60 63 66 68 71 72 75 81
3 7 3 6 2 5 4 4 4 3 3 8 9 5 12 15 18 16 21 30 29 21 22 30 33 35 38 40 36 38 42 46 50 53 55 57 58 58 60 64 68 72 73 74
4 4 4 5 10 9 3 4 3 2 4 7 5 11 6 8 17 20 33 38 24 19 28 33 36 41 42 40 36 38 42 44 46 50 54 56 56 57 57 60 64 68 72 76
3 3 6 5 9 9 4 4 10 7 9 7 3 14 9 9 7 18 5 8 22 29 37 37 38 40 41 44 43 40 43 46 48 49 51 53 55 55 57 59 61 64 69 72
10 3 3 3 6 7 5 10 8 8 2 11 9 11 8 13 11 14 19 25 33 33 29 37 38 38 40 44 49 46 45 49 51 52 51 51 52 54 55 58 62 64 67 69
9 2 9 8 6 7 6 8 19 12 7 8 19 26 9 15 14 8 20 37 49 38 34 33 37 40 41 44 49 53 48 52 56 56 52 51 50 52 56 58 61 65 67 68
6 6 1 6 10 11 13 11 19 34 27 17 4 31 16 9 15 45 51 37 26 25 26 28 33 40 46 52 57 54 50 56 59 58 54 51 50 51 54 58 62 65 67 68
1 3 5 10 10 16 27 21 29 44 43 41 45 57 42 69 55 25 20 36 29 23 23 27 32 39 46 55 57 54 50 57 58 58 55 52 52 51 53 57 63 68 69 68
11 9 5 8 6 15 21 35 51 25 13 41 33 46 15 14 11 15 28 33 32 33 35 34 35 42 59 60 51 52 55 57 56 55 56 54 53 54 55 59 63 67 71 70
12 7 5 6 5 4 13 9 9 41 12 37 20 25 11 24 32 42 43 41 41 37 35 38 51 65 58 48 51 55 59 58 58 60 59 57 55 56 58 62 65 68 72 71
14 7 2 5 7 21 18 10 12 14 18 38 40 34 43 47 15 24 37 34 34 32 39 55 60 51 45 50 58 62 63 61 62 60 57 58 57 59 61 64 68 71 72 75
15 3 7 4 6 14 8 3 15 6 11 18 33 23 25 14 4 9 20 34 38 48 60 64 52 52 49 54 58 61 64 63 61 58 56 55 56 59 64 67 70 73 74 75
6 8 26 18 11 17 15 24 16 11 13 13 25 21 19 11 33 47 46 50 56 61 58 59 56 52 54 55 58 63 61 61 58 57 55 54 55 58 63 68 72 73 74 73
18 21 11 12 10 23 34 18 12 10 21 18 18 16 25 38 44 47 46 54 57 60 58 59 57 62 61 57 57 56 54 54 56 54 53 54 55 60 65 70 71 68 66 66
8 17 13 28 18 3 67 19 46 24 16 23 32 47 44 45 45 50 57 59 61 62 62 60 64 66 60 56 52 53 51 51 49 48 49 52 57 61 64 68 65 62 58 57
12 19 8 6 13 36 50 60 55 51 55 57 45 43 45 50 53 57 63 63 65 60 59 59 62 61 59 56 50 46 43 40 40 44 48 53 58 60 59 57 56 55 52 51
11 22 13 16 24 49 60 66 60 57 49 46 42 43 44 53 65 68 71 69 68 66 62 59 60 57 59 50 44 41 39 39 42 47 51 54 57 54 52 50 49 47 45 44
25 14 10 22 27 30 31 17 28 29 34 40 43 54 58 56 64 66 74 76 71 68 63 65 59 57 53 48 44 41 40 42 45 49 53 54 53 48 46 46 46 34 41 39
Wind_Direction_500mb
19 67 66 35 26 34 67 100 69 103 87 314 117 300 205 176 253 26 14 9 5 4 358 359 359 356 357 359 3 5 5 7 5 360 357 355 349 337 329 320 309 303 292 273
57 81 44 306 83 45 22 190 70 102 95 337 275 265 236 191 219 303 336 1 2 358 358 359 358 358 1 358 3 5 5 6 7 5 1 355 354 350 339 330 322 316 306 298
67 91 47 339 39 55 53 33 17 337 328 247 276 265 229 201 217 226 262 340 353 356 354 355 355 360 3 1 4 5 6 6 6 6 4 1 357 354 352 344 333 328 320 312
74 81 308 124 80 336 134 34 287 261 281 224 180 282 199 193 207 216 205 336 345 345 345 350 349 359 3 4 5 6 7 8 8 8 7 6 3 358 354 351 344 334 329 322
120 78 9 75 66 343 86 331 274 276 266 19 192 223 166 176 204 194 167 191 307 326 332 340 344 350 354 1 6 6 8 8 7 8 8 7 6 2 358 353 349 347 337 332
91 73 16 28 272 227 286 242 188 217 246 336 141 173 217 179 203 149 155 197 263 301 313 317 330 340 346 354 358 1 3 5 6 6 6 7 6 4 3 359 354 351 348 341
161 131 120 324 236 199 233 222 158 349 15 231 119 291 249 164 128 151 168 189 235 281 294 310 320 330 338 345 352 355 357 359 1 3 5 5 4 4 5 3 358 354 350 348
161 253 159 28 33 55 13 79 154 203 225 99 132 237 252 132 154 162 183 207 245 271 290 304 311 318 324 336 342 346 349 350 353 355 358 1 3 3 2 2 2 359 354 350
124 121 105 46 31 23 9 218 54 98 92 47 233 269 27 136 166 183 209 227 243 263 288 305 309 310 310 322 333 338 340 342 344 347 350 353 356 359 360 359 359 360 357 352
90 98 311 109 219 84 7 151 102 345 130 260 250 254 243 203 207 204 220 229 240 252 286 297 297 300 301 310 321 330 334 336 337 339 343 346 349 352 354 356 357 357 357 356
73 81 144 51 197 159 145 199 235 36 163 203 277 261 243 116 189 195 208 221 217 254 284 296 294 297 299 303 311 317 327 331 333 334 335 338 342 345 348 351 353 355 354 356
148 103 157 183 76 28 330 239 173 148 225 236 150 266 153 128 87 106 96 240 249 265 285 293 295 297 295 300 304 307 319 325 328 329 330 332 335 339 342 346 349 350 352 353
193 233 110 302 9 16 235 209 229 102 90 221 157 256 140 138 155 186 225 251 264 276 289 297 293 291 286 286 296 301 308 317 322 323 323 326 329 333 338 341 343 344 345 348
143 48 194 195 162 114 208 225 207 147 159 217 221 261 191 188 206 281 308 302 300 292 289 294 295 296 291 290 288 296 302 311 315 316 317 319 324 329 333 336 338 338 339 341
120 188 169 268 260 232 216 189 208 214 216 201 162 248 230 251 310 305 300 296 291 277 281 298 302 299 291 287 286 288 298 308 307 308 310 312 316 322 327 331 335 336 335 334
65 160 81 300 284 244 258 233 218 230 233 251 259 275 272 274 280 279 261 291 282 269 275 291 301 308 308 302 284 286 294 307 306 304 304 305 310 317 322 327 330 332 333 331
146 131 105 264 4 319 288 227 217 214 205 225 238 245 288 294 262 294 297 288 286 280 273 287 299 306 317 303 282 285 300 304 303 301 300 299 305 311 316 322 326 328 329 330
145 133 135 256 8 261 240 152 158 213 238 219 250 259 255 264 278 286 289 277 274 271 269 282 301 311 310 287 276 290 297 298 296 294 293 296 301 306 312 317 322 326 325 327
133 160 212 186 218 300 291 152 154 161 260 228 232 249 261 280 275 268 301 285 275 255 269 300 308 307 300 290 294 295 294 292 291 292 290 292 299 304 310 314 319 323 323 324
166 191 162 94 195 238 239 161 138 124 290 234 200 226 241 249 298 263 296 304 288 288 294 302 298 298 291 293 295 293 291 292 287 288 287 290 295 302 308 313 318 320 321 320
164 194 216 216 242 275 218 153 149 99 240 154 182 202 228 211 254 289 291 289 287 288 289 297 291 291 293 295 292 287 287 285 284 285 286 288 294 301 307 311 315 316 317 318
169 173 194 187 204 265 146 125 189 202 140 169 200 257 270 277 281 285 290 293 292 291 288 287 288 287 291 294 292 287 284 282 282 282 285 289 295 302 306 309 311 314 316 318
227 197 186 192 208 273 176 195 211 195 252 253 276 291 295 286 290 296 295 294 291 289 287 283 285 289 291 295 290 285 280 280 282 283 286 291 297 302 305 308 312 315 319 320
238 190 229 74 222 232 229 234 248 262 265 281 286 291 295 291 294 288 293 294 291 288 286 286 286 288 293 292 288 283 281 280 280 283 288 293 297 302 306 309 314 317 322 321
193 150 208 257 270 284 277 275 269 268 280 277 279 284 285 289 290 291 292 293 292 288 287 282 280 282 287 284 281 277 278 280 283 287 293 297 301 306 309 311 315 318 321 321
206 187 193 248 232 238 270 286 310 302 296 291 292 291 289 290 290 291 287 289 287 285 280 280 277 277 279 278 275 276 279 283 288 293 298 301 305 310 311 310 312 315 316 318
Wind_Speed_850mb
11 17 13 13 12 10 7 7 7 12 5 8 6 9 11 13 3 8 14 20 25 30 34 37 40 42 45 50 56 61 65 70 76 81 83 75 65 57 50 48 49 49 49 58
10 10 8 2 5 5 11 2 10 9 4 7 8 14 12 18 9 4 11 17 22 30 35 38 42 44 47 52 56 59 63 67 72 76 76 78 75 64 58 57 52 53 55 51
13 9 2 6 13 6 16 9 8 6 9 15 10 12 16 17 21 18 8 9 18 25 31 36 42 45 46 54 56 57 59 62 67 72 77 79 76 78 73 66 61 58 59 59
13 4 1 4 10 11 8 9 7 7 7 0 9 7 14 19 20 28 15 1 11 19 21 25 33 41 44 50 54 57 59 60 63 68 72 77 82 83 84 78 70 68 65 64
2 6 4 5 6 7 7 6 6 5 8 7 13 3 2 22 18 16 22 7 5 12 15 18 23 31 35 42 48 51 56 59 62 64 66 69 75 78 79 83 83 74 68 68
9 4 7 7 3 7 6 5 8 7 6 1 11 2 9 14 18 14 19 12 6 10 14 16 21 26 32 40 45 49 54 57 60 64 65 66 70 75 81 85 88 90 85 77
7 9 8 3 6 13 12 6 2 3 2 6 12 1 16 9 10 15 22 16 10 12 16 21 23 30 31 39 44 47 51 55 58 61 63 65 67 70 74 79 84 89 92 88
10 5 2 3 7 4 4 1 4 9 4 1 7 11 11 8 26 20 18 15 13 14 17 22 25 30 33 35 40 44 46 49 52 56 59 61 63 66 68 71 74 78 84 87
7 6 7 11 6 5 1 2 2 7 3 5 9 10 7 12 11 19 21 19 21 20 22 24 26 32 36 37 36 40 45 48 50 53 57 59 60 63 66 68 71 72 75 81
3 7 3 6 2 5 4 4 4 3 3 8 9 5 12 15 18 16 21 30 29 21 22 30 33 35 38 40 36 38 42 46 50 53 55 57 58 58 60 64 68 72 73 74
4 4 4 5 10 9 3 4 3 2 4 7 5 11 6 8 17 20 33 38 24 19 28 33 36 41 42 40 36 38 42 44 46 50 54 56 56 57 57 60 64 68 72 76
3 3 6 5 9 9 4 4 10 7 9 7 3 14 9 9 7 18 5 8 22 29 37 37 38 40 41 44 43 40 43 46 48 49 51 53 55 55 57 59 61 64 69 72
10 3 3 3 6 7 5 10 8 8 2 11 9 11 8 13 11 14 19 25 33 33 29 37 38 38 40 44 49 46 45 49 51 52 51 51 52 54 55 58 62 64 67 69
9 2 9 8 6 7 6 8 19 12 7 8 19 26 9 15 14 8 20 37 49 38 34 33 37 40 41 44 49 53 48 52 56 56 52 51 50 52 56 58 61 65 67 68
6 6 1 6 10 11 13 11 19 34 27 17 4 31 16 9 15 45 51 37 26 25 26 28 33 40 46 52 57 54 50 56 59 58 54 51 50 51 54 58 62 65 67 68
1 3 5 10 10 16 27 21 29 44 43 41 45 57 42 69 55 25 20 36 29 23 23 27 32 39 46 55 57 54 50 57 58 58 55 52 52 51 53 57 63 68 69 68
11 9 5 8 6 15 21 35 51 25 13 41 33 46 15 14 11 15 28 33 32 33 35 34 35 42 59 60 51 52 55 57 56 55 56 54 53 54 55 59 63 67 71 70
12 7 5 6 5 4 13 9 9 41 12 37 20 25 11 24 32 42 43 41 41 37 35 38 51 65 58 48 51 55 59 58 58 60 59 57 55 56 58 62 65 68 72 71
14 7 2 5 7 21 18 10 12 14 18 38 40 34 43 47 15 24 37 34 34 32 39 55 60 51 45 50 58 62 63 61 62 60 57 58 57 59 61 64 68 71 72 75
15 3 7 4 6 14 8 3 15 6 11 18 33 23 25 14 4 9 20 34 38 48 60 64 52 52 49 54 58 61 64 63 61 58 56 55 56 59 64 67 70 73 74 75
6 8 26 18 11 17 15 24 16 11 13 13 25 21 19 11 33 47 46 50 56 61 58 59 56 52 54 55 58 63 61 61 58 57 55 54 55 58 63 68 72 73 74 73
18 21 11 12 10 23 34 18 12 10 21 18 18 16 25 38 44 47 46 54 57 60 58 59 57 62 61 57 57 56 54 54 56 54 53 54 55 60 65 70 71 68 66 66
8 17 13 28 18 3 67 19 46 24 16 23 32 47 44 45 45 50 57 59 61 62 62 60 64 66 60 56 52 53 51 51 49 48 49 52 57 61 64 68 65 62 58 57
12 19 8 6 13 36 50 60 55 51 55 57 45 43 45 50 53 57 63 63 65 60 59 59 62 61 59 56 50 46 43 40 40 44 48 53 58 60 59 57 56 55 52 51
11 22 13 16 24 49 60 66 60 57 49 46 42 43 44 53 65 68 71 69 68 66 62 59 60 57 59 50 44 41 39 39 42 47 51 54 57 54 52 50 49 47 45 44
25 14 10 22 27 30 31 17 28 29 34 40 43 54 58 56 64 66 74 76 71 68 63 65 59 57 53 48 44 41 40 42 45 49 53 54 53 48 46 46 46 34 41 39
Wind_Direction_850mb
19 67 66 35 26 34 67 100 69 103 87 314 117 300 205 176 253 26 14 9 5 4 358 359 359 356 357 359 3 5 5 7 5 360 357 355 349 337 329 320 309 303 292 273
57 81 44 306 83 45 22 190 70 102 95 337 275 265 236 191 219 303 336 1 2 358 358 359 358 358 1 358 3 5 5 6 7 5 1 355 354 350 339 330 322 316 306 298
67 91 47 339 39 55 53 33 17 337 328 247 276 265 229 201 217 226 262 340 353 356 354 355 355 360 3 1 4 5 6 6 6 6 4 1 357 354 352 344 333 328 320 312
74 81 308 124 80 336 134 34 287 261 281 224 180 282 199 193 207 216 205 336 345 345 345 350 349 359 3 4 5 6 7 8 8 8 7 6 3 358 354 351 344 334 329 322
120 78 9 75 66 343 86 331 274 276 266 19 192 223 166 176 204 194 167 191 307 326 332 340 344 350 354 1 6 6 8 8 7 8 8 7 6 2 358 353 349 347 337 332
91 73 16 28 272 227 286 242 188 217 246 336 141 173 217 179 203 149 155 197 263 301 313 317 330 340 346 354 358 1 3 5 6 6 6 7 6 4 3 359 354 351 348 341
161 131 120 324 236 199 233 222 158 349 15 231 119 291 249 164 128 151 168 189 235 281 294 310 320 330 338 345 352 355 357 359 1 3 5 5 4 4 5 3 358 354 350 348
161 253 159 28 33 55 13 79 154 203 225 99 132 237 252 132 154 162 183 207 245 271 290 304 311 318 324 336 342 346 349 350 353 355 358 1 3 3 2 2 2 359 354 350
124 121 105 46 31 23 9 218 54 98 92 47 233 269 27 136 166 183 209 227 243 263 288 305 309 310 310 322 333 338 340 342 344 347 350 353 356 359 360 359 359 360 357 352
90 98 311 109 219 84 7 151 102 345 130 260 250 254 243 203 207 204 220 229 240 252 286 297 297 300 301 310 321 330 334 336 337 339 343 346 349 352 354 356 357 357 357 356
73 81 144 51 197 159 145 199 235 36 163 203 277 261 243 116 189 195 208 221 217 254 284 296 294 297 299 303 311 317 327 331 333 334 335 338 342 345 348 351 353 355 354 356
148 103 157 183 76 28 330 239 173 148 225 236 150 266 153 128 87 106 96 240 249 265 285 293 295 297 295 300 304 307 319 325 328 329 330 332 335 339 342 346 349 350 352 353
193 233 110 302 9 16 235 209 229 102 90 221 157 256 140 138 155 186 225 251 264 276 289 297 293 291 286 286 296 301 308 317 322 323 323 326 329 333 338 341 343 344 345 348
143 48 194 195 162 114 208 225 207 147 159 217 221 261 191 188 206 281 308 302 300 292 289 294 295 296 291 290 288 296 302 311 315 316 317 319 324 329 333 336 338 338 339 341
120 188 169 268 260 232 216 189 208 214 216 201 162 248 230 251 310 305 300 296 291 277 281 298 302 299 291 287 286 288 298 308 307 308 310 312 316 322 327 331 335 336 335 334
65 160 81 300 284 244 258 233 218 230 233 251 259 275 272 274 280 279 261 291 282 269 275 291 301 308 308 302 284 286 294 307 306 304 304 305 310 317 322 327 330 332 333 331
146 131 105 264 4 319 288 227 217 214 205 225 238 245 288 294 262 294 297 288 286 280 273 287 299 306 317 303 282 285 300 304 303 301 300 299 305 311 316 322 326 328 329 330
145 133 135 256 8 261 240 152 158 213 238 219 250 259 255 264 278 286 289 277 274 271 269 282 301 311 310 287 276 290 297 298 296 294 293 296 301 306 312 317 322 326 325 327
133 160 212 186 218 300 291 152 154 161 260 228 232 249 261 280 275 268 301 285 275 255 269 300 308 307 300 290 294 295 294 292 291 292 290 292 299 304 310 314 319 323 323 324
166 191 162 94 195 238 239 161 138 124 290 234 200 226 241 249 298 263 296 304 288 288 294 302 298 298 291 293 295 293 291 292 287 288 287 290 295 302 308 313 318 320 321 320
164 194 216 216 242 275 218 153 149 99 240 154 182 202 228 211 254 289 291 289 287 288 289 297 291 291 293 295 292 287 287 285 284 285 286 288 294 301 307 311 315 316 317 318
169 173 194 187 204 265 146 125 189 202 140 169 200 257 270 277 281 285 290 293 292 291 288 287 288 287 291 294 292 287 284 282 282 282 285 289 295 302 306 309 311 314 316 318
227 197 186 192 208 273 176 195 211 195 252 253 276 291 295 286 290 296 295 294 291 289 287 283 285 289 291 295 290 285 280 280 282 283 286 291 297 302 305 308 312 315 319 320
238 190 229 74 222 232 229 234 248 262 265 281 286 291 295 291 294 288 293 294 291 288 286 286 286 288 293 292 288 283 281 280 280 283 288 293 297 302 306 309 314 317 322 321
193 150 208 257 270 284 277 275 269 268 280 277 279 284 285 289 290 291 292 293 292 288 287 282 280 282 287 284 281 277 278 280 283 287 293 297 301 306 309 311 315 318 321 321
206 187 193 248 232 238 270 286 310 302 296 291 292 291 289 290 290 291 287 289 287 285 280 280 277 277 279 278 275 276 279 283 288 293 298 301 305 310 311 310 312 315 316 318